[[{"header":{"parameterUnit":"m.s-1","parameterCategory":1,"la1":30.2991,"la2":30.254,"lo1":-89.0895,"lo2":-89.0444,"dy":0.0017,"dx":0.0017,"nx":28,"ny":28,"refTime":"2024-02-29T09:00:00:Z","depth":0,"parameterNumber":2,"parameterNumberName":"U-component_of_WINDS"},"data":[0,0,0,0,0,0,0,0,0,0,0,0,0,0,0,0,0,0,0,0,0,0,0,0,0,0,0,0,0,0,0,0,0,0,0,0,0,0,0,0,0,0,0,0,0,0,0,0,0,0,0,0,0,0,0,0,0,0,-0.0768,-0.0767,0,-0.0749,-0.0749,-0.0748,-0.0768,-0.0768,-0.0769,-0.077,-0.0748,-0.0747,-0.0746,0,0,0,0,0,0,0,0,0,0,0,0,0,-0.0818,-0.0817,-0.0768,-0.0767,-0.0767,-0.0749,-0.0749,-0.0748,-0.0767,-0.0768,-0.0769,-0.077,-0.0749,-0.0747,-0.0746,0,0,0,0,0,0,0,0,0,0,0,0,0,-0.0797,-0.0816,-0.0768,-0.0775,-0.0775,-0.0749,-0.0749,-0.0748,-0.0767,-0.0768,-0.077,-0.0771,-0.0749,-0.0747,-0.0745,-0.0711,0,0,-0.074,-0.0739,0,0,0,0,0,0,0,0,-0.0798,-0.0795,-0.0774,-0.0774,-0.0774,-0.0762,-0.0758,-0.0736,-0.0767,-0.077,-0.077,-0.0771,-0.0752,-0.075,-0.0744,-0.071,-0.0709,-0.0739,-0.0738,-0.0737,-0.0737,0,0,0,0,0,0,0,-0.08,-0.0796,-0.076,-0.0773,-0.0774,-0.0778,-0.0776,-0.0754,-0.0755,-0.077,-0.0771,-0.0769,-0.0752,-0.0745,-0.0743,-0.0709,-0.0739,-0.0738,-0.0737,-0.0736,-0.0645,-0.0644,0,0,0,0,0,0,-0.0801,-0.0797,-0.0761,-0.076,-0.0789,-0.0776,-0.0774,-0.0765,-0.0755,-0.0755,-0.0768,-0.077,-0.0748,-0.0745,-0.0742,-0.0701,-0.0737,-0.0736,-0.0735,-0.0646,-0.0645,-0.0643,0,0,0,0,0,0,-0.0802,-0.0797,-0.0761,-0.0779,-0.0774,-0.0774,-0.0763,-0.0764,-0.0757,-0.0754,-0.0754,-0.0761,-0.0749,-0.0745,-0.0719,-0.07,-0.0735,-0.0733,-0.0648,-0.0646,-0.0644,-0.0617,0,0,0,0,0,0,-0.0803,-0.0797,-0.0785,-0.0778,-0.0774,-0.0738,-0.0762,-0.0763,-0.0754,-0.0756,-0.0747,-0.0747,-0.0749,-0.0721,-0.0717,-0.0698,-0.0732,-0.0649,-0.0647,-0.0645,-0.062,-0.0614,-0.061,0,0,0,0,0,-0.0805,-0.0778,-0.0784,-0.078,-0.0758,-0.0737,-0.0734,-0.0739,-0.0752,-0.0739,-0.0737,-0.0747,-0.0703,-0.0718,-0.0713,-0.0694,-0.065,-0.0647,-0.0645,-0.0622,-0.0615,-0.061,0,0,0,0,0,0,-0.0781,-0.0777,-0.0784,-0.0754,-0.0746,-0.0741,-0.0724,-0.0732,-0.072,-0.0722,-0.0728,-0.0725,-0.0697,-0.0693,-0.071,-0.066,-0.0679,-0.0675,-0.0663,-0.0657,-0.0653,-0.0653,-0.073,0,0,0,0,0,-0.0773,-0.0757,-0.0754,-0.0728,-0.0724,-0.0725,-0.0716,-0.072,-0.0712,-0.0708,-0.0704,-0.0694,-0.0679,-0.0668,-0.0653,-0.062,-0.0617,-0.0604,-0.0599,-0.0595,-0.0591,-0.0572,-0.0566,-0.0634,-0.0634,-0.0634,0,0,-0.0754,-0.075,-0.074,-0.0723,-0.0717,-0.07,-0.0721,-0.0703,-0.069,-0.0705,-0.0679,-0.0676,-0.0666,-0.0635,-0.0622,-0.0631,-0.0572,-0.0592,-0.0588,-0.0586,-0.0568,-0.0562,-0.0556,-0.0632,-0.0632,-0.0633,0,0,-0.0712,-0.0708,-0.0686,-0.068,-0.0671,-0.0672,-0.0666,-0.066,-0.0658,-0.0633,-0.0644,-0.0628,-0.0601,-0.0593,-0.0586,-0.0541,-0.0549,-0.0536,-0.0511,-0.0492,-0.0487,-0.0482,-0.0465,-0.0459,-0.0533,-0.0532,-0.0532,0,-0.0691,-0.0666,-0.0673,-0.0653,-0.0645,-0.0659,-0.0636,-0.0629,-0.0616,-0.0609,-0.062,-0.0586,-0.0581,-0.0548,-0.0537,-0.0531,-0.0524,-0.0537,-0.0487,-0.0483,-0.0478,-0.0462,-0.0455,-0.0531,-0.0531,-0.0531,-0.0531,0,-0.0639,-0.0622,-0.0605,-0.0592,-0.0582,-0.0561,-0.0563,-0.0552,-0.0558,-0.0557,-0.0531,-0.0524,-0.0508,-0.0501,-0.0506,-0.0469,-0.0475,-0.0487,-0.0506,-0.047,-0.0455,-0.0448,-0.0528,-0.0529,-0.053,-0.053,0,0,-0.0581,-0.0573,-0.0566,-0.056,-0.0552,-0.0538,-0.0517,-0.0502,-0.0492,-0.0482,-0.0464,-0.0441,-0.0451,-0.0443,-0.0447,-0.0431,-0.0394,-0.0444,-0.0444,-0.0434,-0.0352,-0.0342,-0.0335,-0.04,-0.0399,-0.0398,-0.0352,0,-0.0538,-0.0502,-0.0507,-0.0472,-0.0456,-0.0469,-0.045,-0.0443,-0.0442,-0.0427,-0.0426,-0.0409,-0.0425,-0.042,-0.0404,-0.0402,-0.0377,-0.0405,-0.0382,-0.0381,-0.0383,-0.0327,-0.0317,-0.0273,-0.0346,-0.0345,-0.0345,0,-0.0482,-0.0471,-0.0434,-0.0428,-0.0422,-0.0405,-0.0391,-0.0378,-0.0369,-0.0369,-0.036,-0.0367,-0.0345,-0.0365,-0.0335,-0.0353,-0.0344,-0.0342,-0.034,-0.0337,-0.036,-0.0321,-0.026,-0.0253,-0.0335,-0.0336,-0.0337,0,-0.0442,-0.0418,-0.0392,-0.0387,-0.038,-0.0367,-0.0363,-0.0356,-0.0347,-0.0335,-0.0328,-0.0314,-0.0305,-0.0294,-0.0296,-0.0311,-0.0264,-0.0285,-0.0263,-0.0262,-0.0251,-0.0251,-0.0186,-0.0247,-0.0247,-0.0248,-0.0248,0,-0.0392,-0.0369,-0.0374,-0.0358,-0.0332,-0.0339,-0.0313,-0.0311,-0.0304,-0.0287,-0.0298,-0.0282,-0.0287,-0.0271,-0.0273,-0.0246,-0.0243,-0.0242,-0.0242,-0.024,-0.024,-0.0233,-0.0235,-0.0246,-0.0246,-0.0247,-0.0247,0,-0.0342,-0.0345,-0.0318,-0.0313,-0.0311,-0.0292,-0.0288,-0.0272,-0.0273,-0.0252,-0.0247,-0.0247,-0.0229,-0.0231,-0.021,-0.0211,-0.0178,-0.0183,-0.0181,-0.0181,-0.0158,-0.016,-0.0085,-0.0075,-0.0144,-0.0143,-0.0143,0,-0.0309,-0.0292,-0.0285,-0.0275,-0.0271,-0.0255,-0.0245,-0.0251,-0.024,-0.0229,-0.0215,-0.0198,-0.0184,-0.0155,-0.0152,-0.0136,-0.014,-0.0115,-0.0137,-0.0135,-0.0138,-0.0138,-0.0136,-0.011,-0.0109,-0.0108,-0.0108,0,-0.0251,-0.0253,-0.0239,-0.0226,-0.0214,-0.0204,-0.0195,-0.0186,-0.019,-0.0178,-0.016,-0.0149,-0.0129,-0.0111,-0.0096,-0.0091,-0.01,-0.0101,-0.0095,-0.0091,-0.009,-0.0089,-0.0167,-0.0102,-0.0103,-0.0103,-0.0104,-0.0104,-0.0208,-0.0192,-0.0185,-0.0169,-0.0163,-0.0154,-0.0139,-0.0138,-0.0123,-0.0107,-0.0111,-0.009,-0.0082,-0.0063,-0.0056,-0.004,-0.0049,-0.004,-0.0037,-0.0035,-0.0031,-0.0094,-0.0037,-0.0037,-0.0037,-0.0038,-0.0038,0,-0.0148,-0.0145,-0.013,-0.0117,-0.0104,-0.0115,-0.0105,-0.0093,-0.0075,-0.0066,-0.0053,-0.0032,-0.0015,-0.0012,0.0005,0.0018,0.0014,0.0022,0.0022,0.0024,-0.0025,-0.0031,0.0025,0.0025,0.0025,0.0025,0.0025,0.0025,-0.0116,-0.0091,-0.0092,-0.0063,-0.0059,-0.004,-0.0033,-0.0024,-0.0017,0.0007,0.002,0.0022,0.0029,0.0046,0.0061,0.0062,0.0069,0.0079,0.0078,0.0033,0.0027,0.0021,0.0015,0.008,0.008,0.0125,0.0126,0.0126]},{"header":{"parameterUnit":"m.s-1","parameterCategory":1,"la1":30.2991,"la2":30.254,"lo1":-89.0895,"lo2":-89.0444,"dy":0.0017,"dx":0.0017,"nx":28,"ny":28,"refTime":"2024-02-29T09:00:00:Z","depth":0,"parameterNumber":3,"parameterNumberName":"V-component_of_WINDS"},"data":[0,0,0,0,0,0,0,0,0,0,0,0,0,0,0,0,0,0,0,0,0,0,0,0,0,0,0,0,0,0,0,0,0,0,0,0,0,0,0,0,0,0,0,0,0,0,0,0,0,0,0,0,0,0,0,0,0,0,3.1001,3.1004,0,3.1254,3.1257,3.126,3.134,3.1339,3.1338,3.1337,3.1596,3.1604,3.1611,0,0,0,0,0,0,0,0,0,0,0,0,0,3.0587,3.0594,3.1001,3.1004,3.1008,3.1254,3.1257,3.1261,3.134,3.1339,3.1338,3.1336,3.1593,3.1603,3.1612,0,0,0,0,0,0,0,0,0,0,0,0,0,3.0796,3.0597,3.1001,3.1077,3.1086,3.1253,3.1257,3.1262,3.1341,3.1339,3.1337,3.1336,3.159,3.1602,3.1613,3.1722,0,0,3.165,3.1655,0,0,0,0,0,0,0,0,3.0784,3.0811,3.1063,3.1072,3.1083,3.1264,3.1206,3.1416,3.1341,3.1244,3.1337,3.1335,3.1487,3.1507,3.1558,3.1735,3.1746,3.1651,3.1658,3.1664,3.1667,0,0,0,0,0,0,0,3.0769,3.0801,3.1101,3.1066,3.1079,3.1099,3.1126,3.1246,3.1372,3.1253,3.1259,3.1288,3.1492,3.1547,3.1565,3.175,3.1651,3.1661,3.1669,3.1673,3.2028,3.2031,0,0,0,0,0,0,3.0742,3.0788,3.1093,3.1109,3.0926,3.1107,3.1138,3.1208,3.1371,3.1394,3.1289,3.1291,3.1527,3.1551,3.1574,3.1714,3.1663,3.1675,3.1682,3.2026,3.2029,3.2031,0,0,0,0,0,0,3.0733,3.0769,3.1083,3.095,3.0992,3.1116,3.1193,3.1213,3.1268,3.1399,3.1422,3.1322,3.1527,3.1558,3.1685,3.1724,3.168,3.1691,3.2024,3.2027,3.203,3.1992,0,0,0,0,0,0,3.0721,3.0765,3.0808,3.0951,3.0999,3.119,3.1196,3.122,3.1289,3.1293,3.1436,3.1458,3.1528,3.1667,3.1697,3.1739,3.17,3.2021,3.2025,3.2029,3.1991,3.1994,3.1997,0,0,0,0,0,3.0706,3.0787,3.0809,3.0846,3.1055,3.1192,3.1219,3.1298,3.1291,3.1336,3.1419,3.1453,3.1714,3.1679,3.1714,3.176,3.2019,3.2024,3.2029,3.1989,3.1993,3.1996,0,0,0,0,0,0,3.0645,3.0807,3.0834,3.0964,3.1063,3.1205,3.1263,3.13,3.1403,3.1403,3.1497,3.1528,3.1649,3.1717,3.1676,3.1875,3.1868,3.188,3.1826,3.1831,3.1834,3.1815,3.171,0,0,0,0,0,3.0647,3.0744,3.088,3.0982,3.103,3.1138,3.12,3.1252,3.1359,3.1402,3.1495,3.1598,3.1703,3.177,3.1875,3.2,3.2033,3.2049,3.2052,3.2054,3.2064,3.2136,3.2146,3.2048,3.2048,3.2048,0,0,3.0651,3.0752,3.0808,3.0972,3.1056,3.1155,3.1173,3.1277,3.1351,3.1418,3.1545,3.1616,3.1737,3.1864,3.1924,3.1925,3.2098,3.2061,3.2061,3.207,3.2142,3.2152,3.216,3.2051,3.2051,3.205,0,0,3.0711,3.0796,3.089,3.0973,3.1099,3.117,3.1192,3.1329,3.1379,3.1507,3.1559,3.1649,3.1828,3.1912,3.1978,3.2069,3.2104,3.21,3.2116,3.2186,3.2193,3.2201,3.2234,3.2245,3.2109,3.2109,3.2109,0,3.0701,3.0852,3.0934,3.1036,3.1107,3.1171,3.1267,3.1344,3.1497,3.1544,3.1542,3.1769,3.1854,3.2002,3.2024,3.2075,3.2104,3.2085,3.2185,3.2194,3.2202,3.2235,3.2247,3.2108,3.2108,3.2108,3.2108,0,3.0834,3.0938,3.0999,3.1145,3.1223,3.1321,3.1418,3.1487,3.1531,3.1602,3.1732,3.1837,3.1964,3.2002,3.2047,3.2157,3.2154,3.2167,3.2162,3.2208,3.2241,3.2254,3.2106,3.2106,3.2107,3.2107,0,0,3.0864,3.1053,3.1075,3.1142,3.1285,3.1367,3.1468,3.1592,3.1649,3.1752,3.184,3.199,3.2003,3.2078,3.2133,3.2194,3.226,3.22,3.2205,3.2209,3.2388,3.2378,3.2391,3.2283,3.2286,3.2288,3.2379,0,3.0942,3.1126,3.1202,3.135,3.1447,3.151,3.1598,3.1695,3.1763,3.1856,3.1932,3.2037,3.2047,3.2092,3.2155,3.2238,3.2297,3.2232,3.2366,3.237,3.2336,3.2408,3.2398,3.2479,3.2392,3.2394,3.2395,0,3.1059,3.1163,3.132,3.1452,3.1496,3.1573,3.1693,3.1781,3.1892,3.1938,3.2021,3.2073,3.2181,3.2168,3.2319,3.2273,3.2333,3.2382,3.2387,3.2404,3.2387,3.2428,3.2506,3.2519,3.2416,3.2414,3.2413,0,3.1066,3.1245,3.1363,3.1418,3.1574,3.1628,3.1695,3.1805,3.1874,3.1979,3.2025,3.214,3.2204,3.2292,3.2374,3.2356,3.2518,3.2511,3.256,3.2558,3.2592,3.2589,3.2682,3.2627,3.2627,3.2627,3.2627,0,3.1147,3.1241,3.1368,3.1441,3.1548,3.1635,3.1739,3.181,3.1907,3.1995,3.2055,3.2136,3.2238,3.2333,3.2397,3.2513,3.2541,3.2581,3.2598,3.2577,3.2572,3.2618,3.2616,3.263,3.2629,3.2629,3.2628,0,3.1173,3.1262,3.1395,3.1531,3.1568,3.1641,3.1758,3.1831,3.1902,3.2012,3.2043,3.2155,3.2269,3.2359,3.2507,3.255,3.2673,3.269,3.2636,3.2645,3.2689,3.2684,3.2816,3.2838,3.2766,3.2766,3.2767,0,3.122,3.1294,3.1438,3.1501,3.1568,3.1669,3.174,3.1828,3.1899,3.2032,3.2089,3.2207,3.2306,3.2486,3.258,3.2694,3.2716,3.2754,3.2733,3.2711,3.2718,3.2714,3.2722,3.2757,3.2757,3.2757,3.2758,0,3.1293,3.1333,3.1434,3.155,3.1633,3.1728,3.1825,3.1873,3.1978,3.2056,3.2173,3.225,3.2402,3.2519,3.2643,3.2713,3.2753,3.2763,3.2781,3.2762,3.2727,3.2748,3.2644,3.276,3.276,3.276,3.276,3.276,3.1333,3.1401,3.1514,3.1624,3.1706,3.1795,3.187,3.195,3.205,3.218,3.2225,3.2346,3.2456,3.2626,3.2697,3.2793,3.2796,3.2821,3.2828,3.2833,3.2832,3.271,3.2816,3.2816,3.2816,3.2816,3.2816,0,3.141,3.1485,3.1585,3.1719,3.1806,3.1835,3.1944,3.2014,3.212,3.2219,3.2315,3.245,3.2564,3.2667,3.2785,3.2843,3.2864,3.2871,3.2869,3.2884,3.2822,3.2795,3.2852,3.2852,3.2851,3.2851,3.2851,3.2851,3.1461,3.1579,3.1633,3.1792,3.1867,3.1986,3.2046,3.2128,3.2208,3.2356,3.245,3.2517,3.2618,3.2744,3.285,3.2877,3.2919,3.2921,3.2954,3.2893,3.2889,3.2884,3.286,3.2929,3.2929,3.3009,3.301,3.301]}]]